TimeCDT,TemperatureF,Dew PointF,Humidity,Sea Level PressureIn,VisibilityMPH,Wind Direction,Wind SpeedMPH,Gust SpeedMPH,PrecipitationIn,Events,Conditions,WindDirDegrees,DateUTC
12:54 AM,52.0,43.0,71,30.25,10.0,NNE,5.8,-,0.00,,Overcast,20,2012-10-05 05:54:00
1:54 AM,51.1,41.0,68,30.25,10.0,NNE,8.1,-,0.01,,Overcast,30,2012-10-05 06:54:00
2:54 AM,48.9,39.0,69,30.24,10.0,NNE,6.9,-,N/A,,Clear,20,2012-10-05 07:54:00
3:54 AM,48.9,37.9,66,30.27,10.0,North,5.8,-,N/A,,Clear,350,2012-10-05 08:54:00
4:54 AM,48.0,35.1,61,30.27,10.0,NNE,10.4,-,N/A,,Mostly Cloudy,30,2012-10-05 09:54:00
5:54 AM,48.0,35.1,61,30.27,10.0,NNE,9.2,-,N/A,,Mostly Cloudy,20,2012-10-05 10:54:00
6:54 AM,48.0,34.0,58,30.28,10.0,NNE,9.2,-,N/A,,Overcast,30,2012-10-05 11:54:00
7:54 AM,48.0,34.0,58,30.26,10.0,NE,6.9,-,N/A,,Overcast,40,2012-10-05 12:54:00
8:54 AM,48.0,34.0,58,30.26,10.0,NE,8.1,-,N/A,,Overcast,40,2012-10-05 13:54:00
9:54 AM,48.0,34.0,58,30.27,10.0,NNE,12.7,-,N/A,,Overcast,30,2012-10-05 14:54:00
10:54 AM,48.0,33.1,56,30.27,10.0,NNE,11.5,-,N/A,,Overcast,20,2012-10-05 15:54:00
11:54 AM,48.2,33.8,58,30.28,10.0,NNE,12.7,-,N/A,,Overcast,30,2012-10-05 16:54:00
12:54 PM,48.9,32.0,52,30.30,10.0,North,11.5,-,N/A,,Overcast,350,2012-10-05 17:54:00
1:54 PM,51.1,30.9,46,30.28,10.0,North,12.7,19.6,N/A,,Overcast,350,2012-10-05 18:54:00
2:54 PM,51.1,32.0,48,30.27,10.0,NNE,19.6,25.3,N/A,,Overcast,20,2012-10-05 19:54:00
3:54 PM,50.0,34.0,54,30.25,10.0,North,16.1,23.0,N/A,,Overcast,10,2012-10-05 20:54:00
4:54 PM,48.9,32.0,52,30.25,10.0,Variable,4.6,-,N/A,,Overcast,0,2012-10-05 21:54:00
5:54 PM,48.9,32.0,52,30.26,10.0,NNE,9.2,-,N/A,,Clear,20,2012-10-05 22:54:00
6:54 PM,46.0,33.1,61,30.27,10.0,North,9.2,-,N/A,,Clear,360,2012-10-05 23:54:00
7:54 PM,43.0,32.0,65,30.29,10.0,North,3.5,-,N/A,,Clear,10,2012-10-06 00:54:00
8:54 PM,42.1,32.0,67,30.30,10.0,Calm,Calm,-,N/A,,Clear,0,2012-10-06 01:54:00
9:54 PM,43.0,34.0,71,30.29,10.0,Calm,Calm,-,N/A,,Clear,0,2012-10-06 02:54:00
10:54 PM,41.0,33.1,73,30.31,10.0,WSW,4.6,-,N/A,,Clear,240,2012-10-06 03:54:00
11:54 PM,39.9,33.1,77,30.31,10.0,NW,3.5,-,N/A,,Clear,310,2012-10-06 04:54:00